When you browse on this site, cookies collect data to enhance your experience and personalize the content and advertising you see.
Visit our Privacy Policy to learn more. By continuing to use the site, you agree to this use of cookies and data.
  • In Hungary
  • List of Countries
  • For 7 days
  • Water Temperature
  • Satellite Maps
  • Weather Map
  • News
  • Weather Widgets
  • user-avatar
    Login

    Hourly Weather Verden

    Today, 16 February, Saturday

    Time Temperature Precipitation Wind Pressure Humidity
    00:00 +5°C° 0 mm 3 mps 768 mmHg 73%
    01:00 +6°C° 0 mm 2 mps 768 mmHg 69%
    02:00 +5°C° 0 mm 3 mps 767 mmHg 69%
    03:00 +5°C° 0 mm 3 mps 767 mmHg 69%
    04:00 +4°C° 0 mm 3 mps 767 mmHg 69%
    05:00 +4°C° 0 mm 3 mps 767 mmHg 70%
    06:00 +4°C° 0 mm 3 mps 767 mmHg 72%
    07:00 +3°C° 0 mm 3 mps 766 mmHg 73%
    08:00 +4°C° 0 mm 3 mps 766 mmHg 71%
    09:00 +6°C° 0 mm 4 mps 766 mmHg 68%
    10:00 +7°C° 0 mm 4 mps 766 mmHg 66%
    11:00 +8°C° 0 mm 4 mps 766 mmHg 64%
    12:00 +10°C° 0 mm 4 mps 766 mmHg 61%
    13:00 +13°C° 0 mm 3 mps 766 mmHg 59%
    14:00 +13°C° 0 mm 3 mps 766 mmHg 60%
    15:00 +12°C° 0 mm 3 mps 766 mmHg 62%
    16:00 +12°C° 0 mm 3 mps 765 mmHg 64%
    17:00 +10°C° 0 mm 3 mps 766 mmHg 69%
    18:00 +9°C° 0 mm 3 mps 766 mmHg 75%
    19:00 +7°C° 0 mm 3 mps 766 mmHg 81%
    20:00 +7°C° 0 mm 3 mps 766 mmHg 83%
    21:00 +6°C° 0 mm 2 mps 766 mmHg 85%
    22:00 +6°C° 0 mm 2 mps 766 mmHg 87%
    23:00 +5°C° 0 mm 2 mps 766 mmHg 87%

    Tomorrow, 17 February, Sunday

    Time Temperature Precipitation Wind Pressure Humidity
    00:00 +5°C° 0 mm 2 mps 766 mmHg 88%
    01:00 +5°C° 0 mm 2 mps 766 mmHg 89%
    02:00 +5°C° 0 mm 2 mps 766 mmHg 89%
    03:00 +5°C° 0 mm 2 mps 766 mmHg 89%
    04:00 +4°C° 0 mm 2 mps 766 mmHg 90%
    05:00 +4°C° 0 mm 2 mps 766 mmHg 90%
    06:00 +4°C° 0 mm 2 mps 766 mmHg 90%
    07:00 +4°C° 0 mm 2 mps 765 mmHg 90%
    08:00 +5°C° 0 mm 2 mps 765 mmHg 86%
    09:00 +6°C° 0 mm 2 mps 765 mmHg 82%
    10:00 +7°C° 0 mm 2 mps 765 mmHg 77%
    11:00 +9°C° 0 mm 2 mps 765 mmHg 71%
    12:00 +10°C° 0 mm 2 mps 765 mmHg 65%
    13:00 +13°C° 0 mm 2 mps 764 mmHg 59%
    14:00 +13°C° 0 mm 2 mps 764 mmHg 60%
    15:00 +13°C° 0 mm 2 mps 764 mmHg 61%
    16:00 +12°C° 0 mm 2 mps 763 mmHg 63%
    17:00 +10°C° 0 mm 2 mps 763 mmHg 67%
    18:00 +9°C° 0 mm 2 mps 763 mmHg 72%
    19:00 +7°C° 0 mm 2 mps 763 mmHg 77%
    20:00 +7°C° 0 mm 2 mps 763 mmHg 78%
    21:00 +7°C° 0 mm 2 mps 763 mmHg 80%
    22:00 +6°C° 0 mm 2 mps 763 mmHg 81%
    23:00 +6°C° 0 mm 2 mps 763 mmHg 82%

    Day after tomorrow, 18 February, Monday

    Time Temperature Precipitation Wind Pressure Humidity
    00:00 +6°C° 0 mm 2 mps 763 mmHg 83%
    01:00 +5°C° 0 mm 2 mps 763 mmHg 84%
    02:00 +5°C° 0 mm 2 mps 763 mmHg 84%
    03:00 +4°C° 0 mm 2 mps 762 mmHg 84%
    04:00 +4°C° 0 mm 2 mps 762 mmHg 83%
    05:00 +4°C° 0 mm 2 mps 762 mmHg 83%
    06:00 +4°C° 0 mm 2 mps 762 mmHg 83%
    07:00 +3°C° 0 mm 2 mps 762 mmHg 82%
    08:00 +4°C° 0 mm 3 mps 762 mmHg 77%
    09:00 +5°C° 0 mm 3 mps 762 mmHg 72%
    10:00 +7°C° 0 mm 3 mps 762 mmHg 67%
    11:00 +9°C° 0 mm 3 mps 761 mmHg 63%
    12:00 +10°C° 0 mm 3 mps 761 mmHg 60%
    13:00 +12°C° 0 mm 4 mps 761 mmHg 56%
    14:00 +12°C° 0 mm 3 mps 761 mmHg 57%
    15:00 +12°C° 0 mm 3 mps 760 mmHg 58%
    16:00 +13°C° 0 mm 2 mps 760 mmHg 59%
    17:00 +10°C° 0 mm 2 mps 760 mmHg 63%
    18:00 +9°C° 0 mm 2 mps 760 mmHg 68%
    19:00 +7°C° 0 mm 2 mps 760 mmHg 72%
    20:00 +7°C° 0 mm 2 mps 760 mmHg 74%
    21:00 +7°C° 0 mm 3 mps 760 mmHg 77%
    22:00 +5°C° 0 mm 3 mps 759 mmHg 79%
    23:00 +5°C° 0 mm 3 mps 759 mmHg 80%

    19 February, Tuesday

    Time Temperature Precipitation Wind Pressure Humidity
    00:00 +5°C° 0 mm 3 mps 759 mmHg 82%
    01:00 +5°C° 0 mm 4 mps 759 mmHg 83%
    02:00 +5°C° 0 mm 4 mps 759 mmHg 84%
    03:00 +5°C° 0 mm 4 mps 759 mmHg 86%
    04:00 +5°C° 0 mm 4 mps 758 mmHg 87%
    05:00 +5°C° 0.3 mm 4 mps 758 mmHg 89%
    06:00 +5°C° 0.3 mm 4 mps 758 mmHg 90%
    07:00 +5°C° 0.3 mm 4 mps 758 mmHg 92%
    08:00 +6°C° 0.7 mm 4 mps 758 mmHg 91%
    09:00 +6°C° 0.7 mm 5 mps 759 mmHg 90%
    10:00 +6°C° 0.7 mm 5 mps 759 mmHg 89%
    11:00 +6°C° 0.1 mm 5 mps 759 mmHg 85%
    12:00 +7°C° 0.1 mm 6 mps 759 mmHg 80%
    13:00 +7°C° 0.1 mm 6 mps 760 mmHg 76%
    14:00 +8°C° 0.1 mm 6 mps 760 mmHg 74%
    15:00 +8°C° 0.1 mm 6 mps 760 mmHg 72%
    16:00 +8°C° 0.1 mm 6 mps 760 mmHg 71%
    17:00 +7°C° 0 mm 5 mps 761 mmHg 76%
    18:00 +6°C° 0 mm 4 mps 761 mmHg 81%
    19:00 +5°C° 0 mm 4 mps 761 mmHg 85%
    20:00 +4°C° 0 mm 4 mps 762 mmHg 87%
    21:00 +4°C° 0 mm 4 mps 762 mmHg 89%
    22:00 +3°C° 0 mm 4 mps 763 mmHg 91%
    23:00 +3°C° 0 mm 4 mps 763 mmHg 92%

    20 February, Wednesday

    Time Temperature Precipitation Wind Pressure Humidity
    00:00 +3°C° 0 mm 4 mps 763 mmHg 92%
    01:00 +1°C° 0 mm 4 mps 763 mmHg 93%
    02:00 +3°C° 0 mm 4 mps 763 mmHg 92%
    03:00 +3°C° 0 mm 4 mps 763 mmHg 91%
    04:00 +3°C° 0 mm 4 mps 763 mmHg 89%
    05:00 +3°C° 0 mm 4 mps 763 mmHg 91%
    06:00 +1°C° 0 mm 4 mps 763 mmHg 92%
    07:00 +2°C° 0 mm 3 mps 763 mmHg 94%
    08:00 +3°C° 0 mm 4 mps 764 mmHg 91%
    09:00 +4°C° 0 mm 4 mps 764 mmHg 89%
    10:00 +5°C° 0 mm 5 mps 764 mmHg 86%
    11:00 +6°C° 0 mm 5 mps 765 mmHg 81%
    12:00 +7°C° 0 mm 5 mps 765 mmHg 77%
    13:00 +9°C° 0 mm 5 mps 765 mmHg 72%
    14:00 +9°C° 0 mm 5 mps 765 mmHg 71%
    15:00 +10°C° 0 mm 4 mps 765 mmHg 70%
    16:00 +10°C° 0 mm 4 mps 765 mmHg 70%
    17:00 +8°C° 0 mm 4 mps 765 mmHg 74%
    18:00 +8°C° 0 mm 3 mps 765 mmHg 78%
    19:00 +7°C° 0 mm 3 mps 765 mmHg 82%
    20:00 +7°C° 0.1 mm 3 mps 765 mmHg 81%
    21:00 +7°C° 0.1 mm 3 mps 765 mmHg 81%
    22:00 +7°C° 0.1 mm 3 mps 765 mmHg 81%
    23:00 +5°C° 0 mm 3 mps 765 mmHg 80%

    21 February, Thursday

    Time Temperature Precipitation Wind Pressure Humidity
    00:00 +5°C° 0 mm 3 mps 765 mmHg 79%
    01:00 +5°C° 0 mm 4 mps 765 mmHg 79%
    02:00 +5°C° 0 mm 4 mps 765 mmHg 81%
    03:00 +5°C° 0 mm 4 mps 765 mmHg 83%
    04:00 +4°C° 0 mm 4 mps 765 mmHg 85%
    05:00 +4°C° 0 mm 4 mps 765 mmHg 87%
    06:00 +4°C° 0 mm 4 mps 765 mmHg 89%
    07:00 +4°C° 0 mm 4 mps 765 mmHg 92%
    08:00 +5°C° 0.1 mm 5 mps 765 mmHg 91%
    09:00 +5°C° 0.1 mm 5 mps 765 mmHg 90%
    10:00 +6°C° 0.1 mm 5 mps 765 mmHg 90%
    11:00 +6°C° 0 mm 5 mps 766 mmHg 89%
    12:00 +7°C° 0 mm 5 mps 766 mmHg 88%
    13:00 +8°C° 0 mm 5 mps 766 mmHg 87%
    14:00 +8°C° 0 mm 5 mps 766 mmHg 88%
    15:00 +8°C° 0 mm 4 mps 766 mmHg 89%
    16:00 +8°C° 0 mm 4 mps 766 mmHg 90%
    17:00 +8°C° 0 mm 4 mps 766 mmHg 91%
    18:00 +8°C° 0 mm 4 mps 767 mmHg 92%
    19:00 +9°C° 0 mm 3 mps 767 mmHg 94%
    20:00 +7°C° 0 mm 4 mps 767 mmHg 95%
    21:00 +7°C° 0 mm 4 mps 768 mmHg 96%
    22:00 +6°C° 0 mm 4 mps 768 mmHg 96%
    23:00 +6°C° 0 mm 4 mps 768 mmHg 96%
    Show more